XNO83Y EBBR-EGKK

Flight info

Callsign XNO83Y
Flight time 0h 43m
Altitude 28000
Route DENUT L610 TEBRA
Aircraft A319/M-SDE3FGHIRWY/LB1

Departure

Time 2026-05-07 18:51
Airport Brussels Airport (EBBR)

Arrival

Time 2026-05-07 19:34
Airport London Gatwick Airport (EGKK)
Time Latitude Longitude Altitude Speed Heading
2026-05-07 18:09 50.89939 4.48677 128 ft 0 kts 335°
2026-05-07 18:38 50.89937 4.48678 130 ft 2 kts 335°
2026-05-07 18:38 50.89913 4.48693 131 ft 4 kts 343°
2026-05-07 18:38 50.89896 4.48700 132 ft 4 kts 350°
2026-05-07 18:38 50.89869 4.48705 134 ft 4 kts
2026-05-07 18:39 50.89843 4.48700 135 ft 4 kts 20°
2026-05-07 18:39 50.89821 4.48679 136 ft 4 kts 59°
2026-05-07 18:39 50.89818 4.48672 136 ft 0 kts 65°
2026-05-07 18:42 50.89819 4.48673 136 ft 0 kts 65°
2026-05-07 18:42 50.89820 4.48678 136 ft 1 kts 65°
2026-05-07 18:43 50.89825 4.48696 136 ft 3 kts 65°
2026-05-07 18:43 50.89835 4.48729 136 ft 4 kts 65°
2026-05-07 18:43 50.89852 4.48788 136 ft 8 kts 65°
2026-05-07 18:43 50.89881 4.48886 136 ft 12 kts 65°
2026-05-07 18:44 50.89921 4.49027 136 ft 16 kts 65°
2026-05-07 18:44 50.89967 4.49186 135 ft 14 kts 70°
2026-05-07 18:44 50.90005 4.49344 132 ft 16 kts 63°
2026-05-07 18:44 50.90078 4.49439 129 ft 14 kts 12°
2026-05-07 18:45 50.90179 4.49479 128 ft 16 kts 15°
2026-05-07 18:45 50.90293 4.49527 121 ft 18 kts 14°
2026-05-07 18:45 50.90419 4.49579 124 ft 19 kts 14°
2026-05-07 18:45 50.90548 4.49631 124 ft 19 kts 15°
2026-05-07 18:46 50.90679 4.49685 123 ft 19 kts 13°
2026-05-07 18:46 50.90796 4.49727 124 ft 15 kts 15°
2026-05-07 18:46 50.90870 4.49760 124 ft 11 kts 16°
2026-05-07 18:46 50.90936 4.49804 121 ft 10 kts 39°
2026-05-07 18:47 50.90995 4.49878 120 ft 12 kts 36°
2026-05-07 18:47 50.91034 4.49911 119 ft 3 kts 21°
2026-05-07 18:47 50.91037 4.49912 119 ft 0 kts 21°
2026-05-07 18:49 50.91062 4.49927 117 ft 10 kts 21°
2026-05-07 18:49 50.91130 4.49935 118 ft 10 kts 335°
2026-05-07 18:49 50.91137 4.49878 119 ft 3 kts 242°
2026-05-07 18:49 50.91135 4.49871 119 ft 0 kts 246°
2026-05-07 18:50 50.91129 4.49852 119 ft 17 kts 246°
2026-05-07 18:50 50.90968 4.49285 118 ft 93 kts 245°
2026-05-07 18:50 50.90612 4.48053 121 ft 150 kts 245°
2026-05-07 18:50 50.90119 4.46406 453 ft 167 kts 244°
2026-05-07 18:51 50.89624 4.44789 1202 ft 161 kts 244°
2026-05-07 18:51 50.89113 4.43091 1583 ft 181 kts 245°
2026-05-07 18:51 50.88587 4.41205 2054 ft 191 kts 246°
2026-05-07 18:51 50.88042 4.39188 2511 ft 206 kts 246°
2026-05-07 18:52 50.87456 4.37002 2872 ft 227 kts 246°
2026-05-07 18:52 50.86805 4.34573 3293 ft 252 kts 246°
2026-05-07 18:52 50.86100 4.31943 4028 ft 264 kts 246°
2026-05-07 18:52 50.85365 4.29205 4309 ft 274 kts 246°
2026-05-07 18:53 50.84631 4.26464 4087 ft 267 kts 246°
2026-05-07 18:53 50.83911 4.23776 4003 ft 268 kts 247°
2026-05-07 18:53 50.83512 4.20879 4813 ft 271 kts 270°
2026-05-07 18:53 50.83873 4.17956 5792 ft 273 kts 294°
2026-05-07 18:54 50.84971 4.15550 6611 ft 279 kts 317°
2026-05-07 18:54 50.86450 4.13567 6904 ft 278 kts 320°
2026-05-07 18:54 50.87959 4.11653 7016 ft 277 kts 321°
2026-05-07 18:54 50.89475 4.09760 7091 ft 277 kts 321°
2026-05-07 18:55 50.90990 4.07863 7090 ft 277 kts 320°
2026-05-07 18:55 50.92260 4.05577 7264 ft 280 kts 298°
2026-05-07 18:55 50.93162 4.02850 8232 ft 279 kts 297°
2026-05-07 18:55 50.94077 4.00155 9156 ft 282 kts 297°
2026-05-07 18:56 50.95021 3.97403 10051 ft 285 kts 297°
2026-05-07 18:56 50.95991 3.94567 10519 ft 303 kts 297°
2026-05-07 18:56 50.97032 3.91500 10765 ft 327 kts 297°
2026-05-07 18:56 50.98146 3.88197 10958 ft 350 kts 297°
2026-05-07 18:57 50.99329 3.84680 11091 ft 372 kts 297°
2026-05-07 18:57 51.00577 3.80960 11292 ft 390 kts 297°
2026-05-07 18:57 51.01859 3.77125 11823 ft 396 kts 297°
2026-05-07 18:57 51.03160 3.73225 12436 ft 401 kts 297°
2026-05-07 18:58 51.04468 3.69290 13063 ft 404 kts 297°
2026-05-07 18:58 51.05771 3.65364 13687 ft 408 kts 297°
2026-05-07 18:58 51.07100 3.61351 14239 ft 412 kts 296°
2026-05-07 18:58 51.08443 3.57300 14768 ft 414 kts 297°
2026-05-07 18:59 51.09793 3.53227 15301 ft 417 kts 297°
2026-05-07 18:59 51.11148 3.49133 15824 ft 419 kts 297°
2026-05-07 18:59 51.12512 3.45010 16333 ft 422 kts 297°
2026-05-07 18:59 51.13880 3.40865 16831 ft 424 kts 296°
2026-05-07 19:00 51.15251 3.36697 17308 ft 426 kts 296°
2026-05-07 19:00 51.16628 3.32500 17781 ft 429 kts 296°
2026-05-07 19:00 51.18010 3.28281 18250 ft 431 kts 296°
2026-05-07 19:00 51.19402 3.24024 18661 ft 434 kts 296°
2026-05-07 19:01 51.20793 3.19761 19054 ft 436 kts 296°
2026-05-07 19:01 51.22197 3.15458 19444 ft 437 kts 296°
2026-05-07 19:01 51.23604 3.11139 19826 ft 439 kts 296°
2026-05-07 19:01 51.24998 3.06849 20194 ft 441 kts 296°
2026-05-07 19:02 51.26412 3.02491 20551 ft 443 kts 296°
2026-05-07 19:02 51.27829 2.98117 20907 ft 445 kts 296°
2026-05-07 19:02 51.29252 2.93715 21257 ft 446 kts 296°
2026-05-07 19:02 51.30676 2.89297 21597 ft 448 kts 296°
2026-05-07 19:03 51.32107 2.84843 21930 ft 450 kts 296°
2026-05-07 19:03 51.33536 2.80389 22258 ft 452 kts 296°
2026-05-07 19:03 51.34852 2.75820 22575 ft 452 kts 289°
2026-05-07 19:03 51.35756 2.70994 22892 ft 453 kts 281°
2026-05-07 19:04 51.36367 2.66056 23196 ft 454 kts 280°
2026-05-07 19:04 51.36957 2.61214 22988 ft 448 kts 280°
2026-05-07 19:04 51.37563 2.56276 22499 ft 447 kts 280°
2026-05-07 19:04 51.38154 2.51447 22228 ft 448 kts 280°
2026-05-07 19:05 51.38752 2.46551 21955 ft 447 kts 280°
2026-05-07 19:05 51.39347 2.41658 21692 ft 446 kts 280°
2026-05-07 19:05 51.39935 2.36794 21434 ft 444 kts 280°
2026-05-07 19:05 51.40516 2.31950 21175 ft 443 kts 280°
2026-05-07 19:06 51.41094 2.27112 20916 ft 441 kts 280°
2026-05-07 19:06 51.42250 2.17516 20411 ft 439 kts 280°
2026-05-07 19:06 51.42838 2.12722 20158 ft 438 kts 280°
2026-05-07 19:07 51.43425 2.07937 19901 ft 436 kts 280°
2026-05-07 19:07 51.44010 2.03172 19653 ft 435 kts 280°
2026-05-07 19:07 51.44589 1.98414 19400 ft 434 kts 280°
2026-05-07 19:07 51.45156 1.93663 19164 ft 433 kts 279°
2026-05-07 19:08 51.45712 1.88933 18931 ft 432 kts 279°
2026-05-07 19:08 51.46264 1.84208 18688 ft 430 kts 279°
2026-05-07 19:08 51.46812 1.79493 18450 ft 429 kts 279°
2026-05-07 19:08 51.47350 1.74791 18189 ft 428 kts 279°
2026-05-07 19:09 51.47885 1.70096 17918 ft 427 kts 279°
2026-05-07 19:09 51.48288 1.65395 17640 ft 425 kts 272°
2026-05-07 19:09 51.48216 1.60677 17380 ft 422 kts 263°
2026-05-07 19:09 51.47675 1.56123 17090 ft 420 kts 254°
2026-05-07 19:10 51.46748 1.51730 16305 ft 410 kts 249°
2026-05-07 19:10 51.45760 1.47462 15306 ft 406 kts 249°
2026-05-07 19:10 51.44753 1.43237 14511 ft 404 kts 245°
2026-05-07 19:10 51.43398 1.39299 14225 ft 404 kts 235°
2026-05-07 19:11 51.41636 1.35794 14060 ft 403 kts 225°
2026-05-07 19:11 51.39529 1.32859 14078 ft 402 kts 216°
2026-05-07 19:11 51.37277 1.30181 14082 ft 403 kts 216°
2026-05-07 19:11 51.35053 1.27543 14082 ft 402 kts 216°
2026-05-07 19:12 51.32802 1.24878 14078 ft 403 kts 216°
2026-05-07 19:12 51.30548 1.22218 14076 ft 402 kts 216°
2026-05-07 19:12 51.28293 1.19561 14079 ft 403 kts 216°
2026-05-07 19:12 51.26044 1.16889 14080 ft 403 kts 217°
2026-05-07 19:13 51.23802 1.14218 14078 ft 402 kts 217°
2026-05-07 19:13 51.21553 1.11542 14082 ft 402 kts 217°
2026-05-07 19:13 51.19306 1.08869 13994 ft 400 kts 217°
2026-05-07 19:13 51.17084 1.06226 13345 ft 396 kts 217°
2026-05-07 19:14 51.14906 1.03635 12697 ft 392 kts 217°
2026-05-07 19:14 51.12728 1.01048 12015 ft 389 kts 217°
2026-05-07 19:14 51.10569 0.98487 11353 ft 385 kts 217°
2026-05-07 19:14 51.08428 0.95955 10673 ft 381 kts 217°
2026-05-07 19:15 51.06324 0.93469 10304 ft 368 kts 217°
2026-05-07 19:15 51.04314 0.91111 10173 ft 349 kts 217°
2026-05-07 19:15 51.02403 0.88878 10008 ft 333 kts 217°
2026-05-07 19:15 51.00575 0.86745 9858 ft 319 kts 217°
2026-05-07 19:16 50.98830 0.84704 9723 ft 305 kts 218°
2026-05-07 19:16 50.97417 0.82306 9581 ft 292 kts 237°
2026-05-07 19:16 50.96640 0.79407 9425 ft 282 kts 255°
2026-05-07 19:16 50.96179 0.76448 9111 ft 277 kts 255°
2026-05-07 19:17 50.95717 0.73484 8724 ft 275 kts 255°
2026-05-07 19:17 50.95255 0.70543 8326 ft 274 kts 255°
2026-05-07 19:17 50.94792 0.67610 8076 ft 273 kts 255°
2026-05-07 19:17 50.94331 0.64676 7987 ft 274 kts 255°
2026-05-07 19:18 50.93866 0.61734 7995 ft 275 kts 255°
2026-05-07 19:18 50.93399 0.58785 7992 ft 276 kts 255°
2026-05-07 19:18 50.93086 0.56837 7991 ft 275 kts 255°
2026-05-07 19:18 50.92456 0.52941 7990 ft 274 kts 255°
2026-05-07 19:19 50.91991 0.49999 7990 ft 275 kts 255°
2026-05-07 19:19 50.91686 0.48046 7990 ft 275 kts 255°
2026-05-07 19:19 50.91433 0.45035 7989 ft 276 kts 271°
2026-05-07 19:19 50.91715 0.42032 7991 ft 276 kts 281°
2026-05-07 19:20 50.92110 0.39054 7988 ft 276 kts 281°
2026-05-07 19:20 50.92518 0.36082 7982 ft 276 kts 281°
2026-05-07 19:20 50.92927 0.33106 7982 ft 276 kts 281°
2026-05-07 19:20 50.93333 0.30132 7983 ft 276 kts 281°
2026-05-07 19:21 50.93742 0.27169 7984 ft 275 kts 281°
2026-05-07 19:21 50.94153 0.24195 7988 ft 276 kts 281°
2026-05-07 19:21 50.94560 0.21231 7992 ft 275 kts 281°
2026-05-07 19:21 50.94973 0.18263 7998 ft 275 kts 281°
2026-05-07 19:22 50.95380 0.15317 7805 ft 270 kts 281°
2026-05-07 19:22 50.95764 0.12504 7688 ft 258 kts 281°
2026-05-07 19:22 50.96140 0.09781 7558 ft 247 kts 281°
2026-05-07 19:22 50.96505 0.07158 7333 ft 241 kts 282°
2026-05-07 19:23 50.96855 0.04563 7071 ft 238 kts 281°
2026-05-07 19:23 50.97199 0.01983 7043 ft 241 kts 281°
2026-05-07 19:23 50.97545 -0.00638 7067 ft 242 kts 281°
2026-05-07 19:23 50.97885 -0.03251 7060 ft 241 kts 281°
2026-05-07 19:24 50.98218 -0.05855 7060 ft 240 kts 281°
2026-05-07 19:24 50.98549 -0.08450 7063 ft 239 kts 281°
2026-05-07 19:24 50.98879 -0.11032 7064 ft 240 kts 281°
2026-05-07 19:24 50.99214 -0.13656 7054 ft 240 kts 281°
2026-05-07 19:25 50.99539 -0.16216 7062 ft 239 kts 281°
2026-05-07 19:25 50.99869 -0.18811 7062 ft 239 kts 281°
2026-05-07 19:25 51.00198 -0.21401 7058 ft 239 kts 281°
2026-05-07 19:25 51.00526 -0.23980 6853 ft 237 kts 281°
2026-05-07 19:26 51.00848 -0.26535 6520 ft 237 kts 281°
2026-05-07 19:26 51.01164 -0.29102 6167 ft 238 kts 281°
2026-05-07 19:26 51.01479 -0.31692 5801 ft 239 kts 281°
2026-05-07 19:26 51.01794 -0.34287 5435 ft 239 kts 281°
2026-05-07 19:27 51.02109 -0.36886 5075 ft 239 kts 281°
2026-05-07 19:27 51.02420 -0.39441 4732 ft 239 kts 281°
2026-05-07 19:27 51.02736 -0.42032 4392 ft 238 kts 281°
2026-05-07 19:27 51.03053 -0.44618 4043 ft 237 kts 281°
2026-05-07 19:28 51.03367 -0.47186 3715 ft 236 kts 281°
2026-05-07 19:28 51.03683 -0.49744 3406 ft 235 kts 281°
2026-05-07 19:28 51.04301 -0.52112 3099 ft 232 kts 310°
2026-05-07 19:28 51.05569 -0.53506 3016 ft 216 kts 343°
2026-05-07 19:29 51.06980 -0.53944 3003 ft 199 kts
2026-05-07 19:29 51.08199 -0.53170 3042 ft 187 kts 41°
2026-05-07 19:29 51.09106 -0.51712 3037 ft 185 kts 50°
2026-05-07 19:29 51.09947 -0.50176 3028 ft 183 kts 51°
2026-05-07 19:30 51.10665 -0.48522 3021 ft 181 kts 70°
2026-05-07 19:30 51.10967 -0.46610 3033 ft 178 kts 78°
2026-05-07 19:30 51.11226 -0.44766 3027 ft 166 kts 78°
2026-05-07 19:30 51.11475 -0.42990 2991 ft 163 kts 78°
2026-05-07 19:31 51.11721 -0.41241 2844 ft 161 kts 78°
2026-05-07 19:31 51.11965 -0.39502 2649 ft 160 kts 78°
2026-05-07 19:31 51.12207 -0.37771 2439 ft 160 kts 79°
2026-05-07 19:31 51.12449 -0.36044 2224 ft 160 kts 79°
2026-05-07 19:32 51.12690 -0.34313 2005 ft 160 kts 79°
2026-05-07 19:32 51.12933 -0.32579 1792 ft 160 kts 79°
2026-05-07 19:32 51.13174 -0.30847 1566 ft 160 kts 79°
2026-05-07 19:32 51.13410 -0.29152 1360 ft 154 kts 79°
2026-05-07 19:33 51.13632 -0.27562 1135 ft 141 kts 79°
2026-05-07 19:33 51.13839 -0.26074 937 ft 134 kts 79°
2026-05-07 19:33 51.14041 -0.24643 746 ft 131 kts 79°
2026-05-07 19:33 51.14232 -0.23229 558 ft 130 kts 79°
2026-05-07 19:34 51.14422 -0.21828 398 ft 129 kts 78°
2026-05-07 19:34 51.14619 -0.20442 235 ft 127 kts 77°
2026-05-07 19:34 51.14786 -0.19220 210 ft 93 kts 78°
2026-05-07 19:34 51.14887 -0.18482 212 ft 47 kts 77°
2026-05-07 19:35 51.14951 -0.18057 205 ft 33 kts 70°
2026-05-07 19:35 51.15059 -0.17791 205 ft 17 kts 52°
2026-05-07 19:35 51.15117 -0.17756 205 ft 8 kts 354°
2026-05-07 19:35 51.15148 -0.17763 205 ft 4 kts 352°
2026-05-07 19:36 51.15168 -0.17768 205 ft 2 kts 352°
2026-05-07 19:36 51.15181 -0.17770 211 ft 1 kts 353°
2026-05-07 19:36 51.15189 -0.17771 213 ft 1 kts 357°
2026-05-07 19:36 51.15190 -0.17771 213 ft 0 kts 357°
2026-05-07 19:37 51.15193 -0.17771 212 ft 2 kts 357°
2026-05-07 19:38 51.15220 -0.17775 208 ft 5 kts 354°
2026-05-07 19:38 51.15250 -0.17802 211 ft 5 kts 275°
2026-05-07 19:38 51.15243 -0.17862 214 ft 6 kts 256°
2026-05-07 19:38 51.15233 -0.17905 205 ft 4 kts 220°
2026-05-07 19:39 51.15225 -0.17938 211 ft 4 kts 268°
2026-05-07 19:39 51.15224 -0.17990 207 ft 6 kts 268°
2026-05-07 19:39 51.15232 -0.18078 212 ft 11 kts 307°
2026-05-07 19:39 51.15317 -0.18120 207 ft 14 kts 348°
2026-05-07 19:40 51.15413 -0.18154 204 ft 14 kts 347°
2026-05-07 19:40 51.15509 -0.18195 207 ft 14 kts 345°
2026-05-07 19:40 51.15596 -0.18225 204 ft 11 kts 349°
2026-05-07 19:40 51.15659 -0.18222 206 ft 8 kts 43°
2026-05-07 19:41 51.15673 -0.18149 204 ft 6 kts 77°
2026-05-07 19:41 51.15683 -0.18077 206 ft 7 kts 76°
2026-05-07 19:41 51.15695 -0.17986 209 ft 10 kts 79°
2026-05-07 19:41 51.15708 -0.17878 208 ft 9 kts 100°
2026-05-07 19:42 51.15667 -0.17858 212 ft 4 kts 166°
2026-05-07 19:42 51.15642 -0.17850 207 ft 2 kts 167°
2026-05-07 19:42 51.15640 -0.17849 206 ft 0 kts 167°